Flag Weather past 2 weeks in Idar-Oberstein, Rhineland-Palatinate, Germany

Now
39 °F

Fog.


Feels Like: 30 °F
Forecast: 39 / 51 °F
Wind: 17 mph from Southeast

Location: Hahn

Current Time: Nov 23, 2014 at 5:24:01 PM

Latest Report: Nov 23, 2014 at 4:50 PM


Visibility: 0 mi

Pressure: 30.04 "Hg

Humidity: 100%

Dew point: 39 °F

Location of Idar-ObersteinLocation

Historic Weather in Idar-Oberstein — Graph

°F

Idar-Oberstein temperature yesterday

Maximum temperature yesterday: 46 °F (at 1:50 PM)
Minimum temperature yesterday: 37 °F (at 12:20 AM)
Average temperature yesterday: 40 °F

Past Weeks' High & Low Weather Summary

 TemperatureHumidityPressure
High50 °F (Nov 10, 2:20 PM)100% (Nov 8, 6:50 PM)30.27 "Hg (Nov 8, 6:50 PM)
Low36 °F (Nov 21, 2:50 AM)71% (Nov 19, 1:50 PM)29.53 "Hg (Nov 16, 2:50 AM)
Average43 °F99%29.85 "Hg
* Reported Nov 8 3:20 PM — Nov 23 3:50 PM, Idar-Oberstein, Weather by CustomWeather, © 2014

Note: Actual official high and low records may vary slightly from our data, if they occured in-between our weather recording intervals... More about our weather records

Advertising

Idar-Oberstein weather history for previous 24 hours

 ConditionsComfort  
Time TempWeatherWind HumidityBarometerVisibility
3:50 PM
Nov 23
39 °FFog.16 mph100%30.07 "Hg0 mi
3:20 PM39 °FFog.16 mph100%30.07 "Hg0 mi
2:50 PM41 °FFog.17 mph100%30.07 "Hg0 mi
2:20 PM39 °FFog.15 mph100%30.09 "Hg0 mi
1:50 PM41 °FFog.16 mph100%30.07 "Hg0 mi
12:50 PM39 °FFog.16 mph100%30.09 "Hg0 mi
12:20 PM39 °FFog.16 mph100%30.12 "Hg0 mi
11:50 AM39 °FFog.16 mph100%30.12 "Hg0 mi
11:20 AM39 °FFog.16 mph100%30.12 "Hg0 mi
10:50 AM39 °FFog.20 mph100%30.12 "Hg0 mi
10:20 AM37 °FFog.20 mph100%30.12 "Hg0 mi
9:50 AM37 °FFog.18 mph100%30.12 "Hg0 mi
9:20 AM36 °FFog.17 mph100%30.12 "Hg0 mi
8:50 AM36 °FFog.18 mph100%30.12 "Hg0 mi
8:20 AM37 °FFog.17 mph100%30.12 "Hg0 mi
7:50 AM37 °FFog.15 mph100%30.12 "Hg0 mi
7:20 AM37 °FFog.18 mph100%30.09 "Hg0 mi
6:50 AM37 °FFog.17 mph100%30.09 "Hg0 mi
6:20 AM37 °FFog.14 mph100%30.09 "Hg0 mi
5:50 AM37 °FFog.13 mph100%30.09 "Hg0 mi
5:20 AM37 °FFog.15 mph100%30.12 "Hg0 mi
4:50 AM37 °FFog.13 mph100%30.12 "Hg0 mi
4:20 AM37 °FFog.15 mph100%30.12 "Hg0 mi
3:50 AM37 °FFog.15 mph100%30.12 "Hg0 mi
3:20 AM39 °FFog.13 mph100%30.12 "Hg0 mi
2:50 AM39 °FFog.10 mph100%30.12 "Hg0 mi
2:20 AM39 °FFog.12 mph100%30.12 "Hg0 mi
1:50 AM39 °FFog.10 mph100%30.12 "Hg0 mi
1:20 AM39 °FFog.14 mph100%30.12 "Hg0 mi
12:50 AM39 °FFog.13 mph100%30.12 "Hg0 mi
12:20 AM39 °FFog.13 mph100%30.12 "Hg1 mi
11:50 PM
Nov 22
39 °FFog.17 mph100%30.12 "Hg1 mi
11:20 PM39 °FFog.15 mph100%30.12 "Hg1 mi
10:50 PM39 °FFog.17 mph100%30.12 "Hg0 mi
10:20 PM39 °FFog.15 mph100%30.12 "Hg0 mi
9:50 PM39 °FFog.14 mph100%30.12 "Hg0 mi
9:20 PM41 °FFog.13 mph100%30.12 "Hg0 mi
8:50 PM41 °FFog.15 mph100%30.12 "Hg0 mi
8:20 PM41 °FFog.14 mph100%30.09 "Hg0 mi
7:50 PM41 °FFog.16 mph100%30.09 "Hg1 mi
7:20 PM41 °FPassing clouds.17 mph100%30.09 "Hg5 mi
6:50 PM41 °FClear.14 mph100%30.09 "Hg10 mi
6:20 PM41 °FClear.12 mph100%30.09 "Hg10 mi
5:50 PM43 °FClear.12 mph100%30.09 "Hg10 mi
5:20 PM43 °FClear.12 mph100%30.09 "Hg10 mi
Weather by CustomWeather, © 2014

See weather overviewHow to use our weather pages